AJ5TT Weather Reports


time (UTC)temp
C
wind
direction
speed
KPH
gust
KPH
rain 1hr
cm
rain 24hr
cm
rain mn
cm
humidity
%
barometer
mb
20260507040101 25 0 0.0 3.2 0.00 0.00 0.00 92 1012.4
20260507034559 25 234 0.0 3.2 0.00 0.00 0.00 92 1012.2
20260507033053 25 234 0.0 3.2 0.00 0.00 0.00 92 1012.0
20260507031557 25 0 0.0 3.2 0.00 0.00 0.00 91 1011.8
20260507024601 25 158 0.0 4.8 0.00 0.00 0.00 91 1011.4
20260507023054 25 0 0.0 3.2 0.00 0.00 0.00 90 1011.4
20260507021602 25 152 1.6 4.8 0.00 0.00 0.00 90 1011.1
20260507020053 25 185 1.6 3.2 0.00 0.00 0.00 89 1010.8
20260507014559 25 189 1.6 4.8 0.00 0.00 0.00 89 1010.7
20260507013056 26 187 3.2 8.0 0.00 0.00 0.00 88 1010.4
20260507011559 26 171 0.0 6.4 0.00 0.00 0.00 88 1010.4
20260507010057 26 237 1.6 3.2 0.00 0.00 0.00 87 1010.2
20260507004553 26 186 1.6 3.2 0.00 0.00 0.00 87 1010.1
20260507003059 26 160 0.0 4.8 0.00 0.00 0.00 86 1009.9
20260507001606 26 192 1.6 6.4 0.00 0.00 0.00 86 1009.7
20260507000058 26 153 1.6 4.8 0.00 0.00 0.00 85 1009.7
20260506234624 27 208 1.6 6.4 0.00 0.00 0.00 84 1009.7
20260506233100 27 220 1.6 12.9 0.00 0.00 0.00 83 1009.6
20260506231554 27 205 1.6 8.0 0.00 0.00 0.00 82 1009.6
20260506230058 28 214 1.6 6.4 0.00 0.00 0.00 81 1009.3
20260506224556 27 219 4.8 14.5 0.00 0.00 0.00 81 1009.3
20260506223100 27 242 3.2 11.3 0.00 0.00 0.00 81 1009.3
20260506221557 28 190 3.2 11.3 0.00 0.00 0.00 80 1009.4
20260506220058 28 187 4.8 12.9 0.00 0.00 0.00 80 1009.4
20260506214553 28 186 3.2 14.5 0.00 0.00 0.00 80 1009.6
20260506213054 29 71 3.2 14.5 0.00 0.00 0.00 76 1009.5
20260506211553 30 176 4.8 14.5 0.00 0.00 0.00 76 1009.4
20260506210054 29 193 3.2 12.9 0.00 0.00 0.00 76 1009.3
20260506204559 29 221 1.6 12.9 0.00 0.00 0.00 78 1009.5
20260506203053 29 200 4.8 11.3 0.00 0.00 0.00 78 1009.7
20260506201557 29 224 4.8 11.3 0.00 0.00 0.00 78 1009.9
20260506200149 28 184 4.8 12.9 0.00 0.00 0.00 81 1010.1
20260506194616 28 223 4.8 9.7 0.00 0.00 0.00 80 1010.3
20260506193055 28 158 3.2 16.1 0.00 0.00 0.00 80 1010.3
20260506191555 28 219 3.2 8.0 0.00 0.00 0.00 80 1010.5
20260506190053 28 217 4.8 9.7 0.00 0.00 0.00 81 1010.9
20260506184604 28 190 1.6 9.7 0.00 0.00 0.00 81 1010.9
20260506183103 28 142 3.2 9.7 0.00 0.00 0.00 81 1011.1
20260506181611 27 163 3.2 9.7 0.00 0.00 0.00 82 1011.2
20260506180058 27 211 3.2 9.7 0.00 0.00 0.00 81 1011.2
20260506174601 27 198 3.2 8.0 0.00 0.00 0.00 81 1011.3
20260506173101 28 178 3.2 9.7 0.00 0.00 0.00 81 1011.5
20260506171601 27 207 1.6 8.0 0.00 0.00 0.00 83 1011.5
20260506170055 27 114 1.6 12.9 0.00 0.00 0.00 83 1011.7
20260506164557 27 132 3.2 11.3 0.00 0.00 0.00 84 1011.7
20260506163055 26 171 3.2 9.7 0.00 0.00 0.00 87 1011.5
20260506161603 26 162 1.6 4.8 0.00 0.00 0.00 89 1011.6
20260506160055 26 149 1.6 11.3 0.00 0.00 0.00 88 1011.6
20260506154556 26 207 1.6 9.7 0.00 0.00 0.00 89 1011.2
20260506153052 26 205 1.6 4.8 0.00 0.00 0.00 90 1011.1
20260506151607 25 91 1.6 6.4 0.00 0.00 0.00 90 1010.9
20260506150054 25 175 1.6 4.8 0.00 0.00 0.00 91 1010.7
20260506144557 25 113 1.6 3.2 0.00 0.00 0.00 91 1010.4
20260506143057 25 113 0.0 3.2 0.00 0.00 0.00 91 1010.4
20260506141551 25 0 0.0 3.2 0.00 0.00 0.00 91 1010.7
20260506140103 25 0 0.0 4.8 0.00 0.00 0.00 91 1010.7
20260506134552 25 133 1.6 6.4 0.00 0.00 0.00 92 1010.7
20260506133054 25 130 1.6 3.2 0.00 0.00 0.00 93 1010.7
20260506131557 25 180 0.0 3.2 0.00 0.00 0.00 93 1010.8
20260506130110 25 134 0.0 3.2 0.00 0.00 0.00 93 1011.0
20260506124556 24 123 1.6 4.8 0.00 0.00 0.00 93 1010.7
20260506123051 24 155 0.0 4.8 0.00 0.00 0.00 93 1010.7
20260506121556 24 0 0.0 3.2 0.00 0.00 0.00 93 1010.6
20260506120054 24 153 0.0 3.2 0.00 0.00 0.00 93 1010.3
20260506114555 24 252 0.0 3.2 0.00 0.00 0.00 93 1010.1
20260506113101 24 226 0.0 4.8 0.00 0.00 0.00 93 1009.9
20260506111554 23 273 1.6 6.4 0.00 0.00 0.00 93 1009.8
20260506110101 23 212 1.6 6.4 0.00 0.00 0.00 93 1009.7
20260506104600 23 122 0.0 4.8 0.00 0.00 0.00 93 1009.7
20260506103055 23 190 0.0 4.8 0.00 0.00 0.00 93 1009.7
20260506101556 24 126 1.6 4.8 0.00 0.00 0.00 93 1009.7
20260506100057 24 172 0.0 3.2 0.00 0.00 0.00 93 1009.6
20260506094558 24 176 0.0 3.2 0.00 0.00 0.00 93 1009.5
20260506093103 24 119 0.0 3.2 0.00 0.00 0.00 93 1009.6
20260506091602 23 0 0.0 3.2 0.00 0.00 0.00 93 1009.6
20260506084558 23 130 0.0 3.2 0.00 0.00 0.00 92 1009.8
20260506083059 24 219 0.0 4.8 0.00 0.00 0.00 92 1009.7
20260506081555 24 144 1.6 4.8 0.00 0.00 0.00 92 1010.0
20260506073104 24 155 1.6 8.0 0.00 0.00 0.00 91 1010.4
20260506071613 24 196 1.6 9.7 0.00 0.00 0.00 91 1010.6
20260506070104 24 126 1.6 9.7 0.00 0.00 0.00 91 1010.7
20260506061553 24 172 1.6 8.0 0.00 0.00 0.00 90 1010.4
20260506044559 25 134 3.2 11.3 0.00 0.00 0.00 89 1010.4
20260506043054 25 182 3.2 12.9 0.00 0.00 0.00 89 1010.4
20260506041606 25 196 3.2 9.7 0.00 0.00 0.00 89 1010.4